Theta_e
298 298 297 296 296 296 296 297 299 301 303 304 303 307 313 316 318 317 313 311 313 319 321 319 317 316 314 312 311 310 311 310 310 311 310 311 311 309 308 310 311 311 311 310 311 311 312 316 322 325 325 325 325 323 321 320 321 327 330 326 326 328 323 321 329 335 333 323 316 317 317 318 323 324 323 326 326 325 331 337 335 328 325 327 333 338 332
298 298 297 296 296 296 296 298 299 301 303 303 303 310 315 313 314 318 314 311 316 320 317 316 316 314 313 312 311 311 310 310 310 310 310 311 312 310 308 310 310 310 310 310 310 311 312 315 320 321 321 322 323 322 322 321 321 328 332 325 322 328 328 327 334 337 334 326 320 319 319 320 323 324 325 325 326 330 330 331 333 329 325 328 332 333 330
298 297 296 296 296 296 296 298 300 302 303 304 304 309 314 312 312 316 314 310 315 318 315 314 315 314 313 314 314 312 311 311 311 311 312 311 310 310 309 309 310 310 310 311 311 312 313 315 317 318 319 319 318 319 320 320 322 327 330 326 325 332 332 329 333 335 331 328 328 326 325 325 323 324 326 325 328 333 328 328 337 331 323 328 332 331 330
298 297 296 296 296 296 296 299 301 303 305 307 305 306 312 315 312 314 316 315 315 317 315 314 316 316 315 315 313 312 312 311 311 311 312 311 310 311 311 310 312 314 314 314 314 315 316 317 319 319 319 317 314 317 320 321 325 326 328 328 329 331 330 326 330 334 332 332 329 324 326 329 326 324 326 327 327 329 331 337 339 330 327 332 330 329 332
297 296 296 296 296 296 297 299 302 305 308 309 307 308 313 314 312 312 316 316 316 318 317 315 315 315 314 313 312 312 313 311 311 312 312 312 311 311 311 312 313 314 317 318 317 316 316 317 319 319 319 319 316 315 317 321 326 326 323 325 330 333 331 326 326 326 324 325 323 318 320 325 324 324 326 329 331 333 336 336 329 324 330 333 328 328 332
297 296 295 296 296 295 297 300 303 307 309 308 309 313 314 313 312 312 313 313 315 317 315 314 315 313 313 315 313 312 312 311 312 313 314 311 310 312 313 312 311 310 314 318 316 316 319 318 319 319 318 322 323 321 319 319 321 321 320 323 329 332 328 322 325 327 320 318 320 319 318 318 320 324 327 328 331 334 334 329 324 325 331 331 328 328 329
297 295 295 296 295 296 297 300 303 306 309 307 307 312 314 313 315 315 313 312 315 315 311 312 314 312 312 315 313 310 311 312 311 313 315 313 309 310 312 311 310 307 310 316 315 314 318 316 318 319 316 319 326 325 323 320 317 320 324 325 325 328 325 320 324 327 320 318 321 319 317 319 320 321 322 323 326 327 327 325 322 322 324 324 323 323 321
297 295 295 295 295 296 297 299 302 305 307 307 306 308 310 311 312 313 315 316 317 315 312 313 315 313 312 313 311 310 311 311 311 312 314 313 310 309 309 309 311 307 307 313 312 309 310 310 314 316 313 317 324 323 322 323 321 322 327 326 324 325 323 320 324 328 322 321 323 319 317 320 320 318 318 320 323 323 324 324 323 323 321 318 319 321 318
297 295 295 295 295 295 297 299 302 304 306 307 308 308 307 306 307 309 314 318 316 312 310 312 316 315 314 312 310 311 311 310 312 314 313 311 311 311 308 309 312 310 308 310 309 306 307 307 309 311 309 314 319 317 318 322 325 328 330 328 327 328 324 321 325 328 323 320 322 320 318 321 322 319 317 319 322 323 324 325 324 324 321 318 320 321 318
297 295 295 295 295 295 296 298 301 304 305 306 309 310 307 307 308 309 314 317 312 309 310 314 314 312 311 311 309 311 312 309 312 314 312 310 310 310 309 310 311 312 312 311 308 306 306 306 306 307 307 309 311 311 313 317 323 328 329 328 329 332 330 325 326 327 323 321 321 321 323 326 325 319 315 315 320 324 325 324 322 321 321 321 322 319 313
297 295 295 295 295 295 296 298 300 303 305 305 308 309 307 307 308 311 318 316 308 307 311 312 311 310 311 312 309 310 313 311 310 312 310 309 309 308 308 310 312 313 313 310 307 306 305 305 305 306 307 308 309 311 312 315 320 323 325 327 327 327 329 327 326 327 324 321 320 322 325 325 321 317 313 313 319 323 323 321 319 318 318 318 316 312 309
297 295 295 295 295 294 296 297 299 302 305 305 306 307 306 306 308 312 319 313 304 306 311 307 307 309 310 311 310 309 310 310 310 310 309 309 312 310 307 308 310 312 312 308 305 305 306 309 310 309 308 309 310 312 311 313 316 317 320 325 324 324 327 326 325 325 323 320 322 324 324 320 318 315 311 311 315 317 316 315 313 312 313 312 311 309 308
296 295 295 295 295 294 296 297 299 302 304 305 305 305 305 306 308 313 319 313 303 304 308 304 304 306 306 307 309 307 307 307 308 309 310 310 311 309 307 306 306 308 307 305 305 307 311 318 321 317 313 312 313 314 311 310 312 313 315 319 322 325 327 325 323 323 322 322 324 323 319 316 317 316 311 310 313 315 315 316 313 310 310 310 309 308 306
296 295 295 295 295 295 295 297 299 302 304 304 304 304 304 305 307 311 316 314 304 300 304 305 305 306 305 304 305 305 305 306 306 307 309 310 308 306 306 305 303 305 305 306 308 312 316 322 327 324 320 319 320 318 315 312 311 313 313 314 318 324 325 324 323 321 321 322 321 319 317 316 318 316 311 309 311 312 315 316 313 310 309 307 306 306 305
296 295 295 295 295 295 295 297 299 301 303 304 303 303 304 305 307 308 310 314 310 303 303 305 305 305 305 303 303 305 306 307 307 308 308 307 305 304 304 303 303 303 305 307 310 316 319 322 326 325 322 321 320 317 316 314 312 312 313 311 313 317 320 323 322 319 320 321 318 318 320 318 315 314 312 310 311 311 312 315 314 310 307 305 304 305 305
297 296 295 295 295 295 295 296 298 300 303 303 303 304 304 304 306 306 307 313 314 306 301 302 303 303 303 303 302 303 306 307 307 310 312 308 305 303 303 303 303 303 307 311 312 317 322 322 322 322 318 316 316 315 315 316 315 313 312 311 312 313 315 321 324 321 321 322 320 319 320 316 314 314 313 312 312 312 313 317 317 311 305 304 304 304 304
297 296 295 295 295 295 295 296 297 300 303 303 303 304 304 303 305 305 305 309 309 303 299 301 303 303 303 303 303 303 305 305 305 308 310 307 303 303 303 304 304 305 309 316 318 320 323 321 320 321 316 311 315 315 314 316 317 315 314 315 315 315 317 321 323 321 319 319 318 316 316 314 312 312 313 311 310 311 314 319 319 311 306 305 304 304 305
297 296 295 295 296 295 295 296 297 299 303 304 304 304 303 303 304 303 305 311 310 303 299 300 301 301 301 301 301 303 304 304 305 308 308 306 304 302 301 303 306 306 308 315 319 318 317 316 317 319 316 310 314 317 315 315 315 312 313 316 318 318 317 318 319 318 317 316 316 314 313 313 310 309 309 309 309 312 316 318 316 310 307 306 305 305 306
297 297 295 294 296 295 295 296 297 299 302 304 304 304 303 303 303 302 306 312 311 303 299 300 300 299 300 301 302 304 302 302 305 307 308 308 305 302 302 304 306 306 306 313 316 312 310 310 311 316 318 313 312 315 313 311 310 310 312 316 317 316 316 316 316 316 315 315 314 313 313 310 306 306 308 309 312 316 316 313 311 309 307 307 307 306 307
297 297 295 294 295 295 295 296 297 299 302 303 304 304 303 302 303 304 305 310 311 305 300 300 300 299 300 301 302 304 303 303 304 305 305 305 304 307 311 310 307 306 305 310 314 310 307 309 309 311 313 310 309 314 312 308 307 308 311 314 313 312 315 316 314 313 314 315 313 314 314 309 305 307 310 310 312 314 311 307 307 307 305 305 305 305 304
296 296 295 294 295 296 295 295 297 300 302 303 303 303 303 301 302 304 304 307 311 308 301 300 299 299 300 301 300 301 302 302 302 303 304 304 305 309 311 308 305 305 304 307 311 309 306 308 309 308 308 307 309 313 313 311 309 307 310 313 312 311 315 316 313 311 313 314 312 310 309 305 303 307 309 308 307 307 306 305 304 304 304 303 303 302 302
296 296 295 294 294 295 295 295 296 299 302 304 303 302 302 301 301 304 304 304 307 306 302 301 300 299 300 300 300 301 301 300 301 301 303 306 307 307 307 306 306 305 303 307 311 309 307 307 308 308 307 306 307 308 310 313 311 307 310 314 312 310 311 312 310 308 309 310 308 305 304 303 302 304 304 304 304 304 304 304 303 303 303 302 302 302 301
296 296 295 295 294 295 295 295 295 297 300 303 303 303 303 301 300 303 305 305 306 305 301 300 301 301 301 301 300 300 300 301 302 300 303 308 310 308 306 306 306 305 306 308 306 305 307 307 306 308 307 304 307 309 309 309 308 307 310 310 307 307 308 308 308 306 305 306 304 303 303 303 302 303 303 303 303 303 302 303 303 303 303 302 302 302 301
296 295 295 295 294 294 295 295 295 296 298 301 303 303 303 301 299 301 305 308 309 307 303 303 306 305 302 301 301 301 301 301 301 301 302 304 307 308 307 306 305 306 309 308 302 304 309 306 304 307 305 302 307 310 309 307 306 307 310 308 306 308 310 309 309 307 307 307 304 302 303 302 301 302 302 301 302 301 302 302 302 302 302 302 302 302 302
295 295 296 295 294 294 295 295 295 295 297 300 302 303 303 301 299 301 305 308 310 310 308 307 307 304 300 300 302 301 301 301 301 301 302 301 302 304 304 302 303 304 305 305 303 306 309 306 304 307 305 302 305 308 308 308 307 308 310 308 306 307 309 309 309 309 308 307 304 302 302 302 301 302 301 301 301 301 300 301 301 301 301 301 301 301 302
295 295 295 295 294 294 294 295 295 295 295 297 300 302 302 300 298 299 302 303 306 309 308 306 305 302 300 301 302 300 301 302 301 301 302 301 302 302 300 300 302 302 302 304 306 308 310 308 307 307 305 303 305 305 304 306 308 310 309 305 304 308 309 308 308 307 306 304 303 303 303 302 301 302 301 300 301 300 300 301 300 300 300 300 300 299 299
295 295 295 294 294 293 294 294 295 296 295 296 299 302 301 297 296 299 301 303 306 309 309 309 309 305 300 300 301 301 301 302 301 302 302 301 301 300 299 299 302 304 307 310 308 307 310 310 306 304 303 303 306 306 304 304 307 309 306 303 305 309 309 307 307 307 307 306 304 305 306 304 301 302 302 301 300 300 300 301 300 300 300 300 300 299 298
295 295 295 294 294 293 294 294 295 296 297 298 300 303 302 298 296 297 299 302 306 310 312 312 310 305 301 301 301 301 302 302 302 302 303 301 301 300 298 298 303 307 311 312 309 307 308 307 303 303 304 305 306 306 306 306 308 306 303 303 307 308 307 309 310 309 309 309 306 306 307 305 302 303 303 302 301 301 301 300 300 300 299 299 299 301 300
294 295 295 295 294 293 294 294 294 297 301 303 304 304 304 302 299 296 296 300 303 307 311 312 309 305 304 303 301 300 302 302 302 302 302 301 301 299 298 299 304 307 307 308 308 309 306 304 303 303 302 302 304 305 306 308 307 304 302 303 305 305 306 309 310 308 307 307 306 305 305 304 303 304 304 302 300 301 302 301 300 300 298 297 297 298 299
295 295 295 294 294 294 294 294 295 299 303 305 306 306 307 306 302 297 295 298 301 304 308 310 308 305 304 302 301 300 302 302 302 302 301 301 301 299 298 300 304 307 309 309 308 307 304 303 307 306 302 302 306 305 304 305 304 301 300 302 304 305 305 306 307 308 307 305 304 304 303 303 302 302 301 299 298 298 300 300 299 298 297 297 296 295 295
295 295 294 294 294 294 294 293 295 299 302 303 305 308 309 308 304 298 295 296 300 303 308 311 309 306 305 304 302 301 301 302 302 302 301 300 301 301 300 301 302 305 309 310 308 305 303 303 305 305 304 307 310 307 305 305 303 300 299 301 303 304 304 304 304 306 305 303 303 302 301 301 300 300 300 299 297 297 298 298 297 297 297 296 296 295 295
295 295 295 294 294 294 293 294 296 299 300 301 302 305 305 304 301 297 295 297 300 303 308 310 307 304 305 307 304 300 301 302 302 304 303 301 301 302 302 303 302 302 304 308 307 304 302 303 304 303 304 306 310 310 308 306 302 299 299 300 301 301 302 303 303 304 304 303 303 302 300 300 300 300 301 299 296 296 296 296 296 297 296 295 295 295 295
295 295 295 294 294 293 293 294 296 298 299 300 301 302 303 302 299 295 296 301 304 304 306 309 307 302 303 306 304 301 302 304 305 306 305 301 300 302 304 305 307 305 304 304 304 302 303 307 308 306 304 306 309 309 306 303 301 300 300 301 301 300 301 301 302 303 303 302 302 303 302 300 299 299 299 297 296 295 296 296 296 296 295 294 295 295 294
295 295 294 294 294 294 294 295 296 297 299 302 303 304 304 301 297 294 297 304 307 305 303 305 306 304 303 305 305 302 302 305 307 307 305 302 301 302 303 306 310 309 305 304 305 305 305 308 309 306 305 308 310 306 302 299 299 300 300 301 302 302 301 300 300 301 301 301 301 302 300 298 298 298 298 298 297 296 295 295 296 296 297 297 296 295 294
295 295 294 294 294 294 295 296 298 300 302 303 303 302 301 298 296 295 298 304 309 308 305 303 304 304 305 306 306 303 302 304 305 304 304 304 302 302 305 308 308 305 303 305 308 306 303 304 307 306 306 307 306 302 299 298 300 301 301 301 302 302 301 300 300 300 301 301 302 301 299 298 298 298 298 300 299 296 295 296 295 296 298 299 297 295 294
295 294 294 294 294 296 298 299 300 303 304 304 302 300 297 296 296 295 297 302 306 307 307 306 304 306 308 308 304 302 302 304 305 304 305 307 305 304 310 313 307 303 305 309 308 303 301 304 307 306 306 305 302 299 299 300 300 301 301 300 301 302 301 300 301 301 302 302 303 303 301 300 301 300 300 301 299 296 296 299 298 296 298 299 296 294 293
295 295 296 297 299 301 303 302 301 302 302 301 300 300 297 297 299 299 300 304 304 304 307 308 304 305 309 309 306 303 302 303 305 305 305 305 303 304 309 310 305 304 310 311 305 300 302 307 308 305 302 302 300 298 299 301 300 300 300 300 302 304 303 301 302 303 302 302 302 301 300 301 301 301 301 301 300 299 299 300 298 297 298 298 296 295 294
296 298 300 302 304 306 306 303 301 300 299 298 300 303 302 301 304 305 304 305 304 302 306 308 305 305 309 309 305 302 302 304 306 306 304 302 302 303 306 305 303 305 307 304 300 300 303 307 308 304 300 300 299 298 299 300 301 301 301 301 303 304 303 301 302 302 302 302 301 300 300 301 301 301 300 299 300 300 298 296 295 295 295 295 295 295 295
299 301 302 303 304 305 304 301 299 299 300 300 302 305 304 302 303 305 304 303 303 303 306 307 306 307 310 308 303 300 302 307 310 308 304 302 302 303 303 302 302 305 303 300 302 306 304 303 305 305 302 301 301 299 298 299 301 302 301 300 299 300 301 300 300 301 303 304 303 301 300 300 299 300 301 300 299 298 296 294 294 295 294 295 295 295 295
301 302 303 304 304 302 300 299 299 301 304 304 303 302 302 301 302 303 303 303 303 304 305 305 304 304 307 308 306 302 301 304 307 306 304 303 303 303 303 301 302 304 302 299 303 305 302 301 305 304 301 299 299 298 298 300 301 301 300 297 295 296 297 298 298 298 299 300 299 298 297 297 296 298 299 300 300 299 297 296 296 295 295 295 295 295 295
300 301 302 303 302 300 298 299 300 302 303 303 302 301 301 302 303 303 304 304 303 303 304 307 307 304 303 306 307 304 300 300 304 306 306 305 304 304 303 301 302 303 301 299 302 304 302 302 303 302 300 299 299 299 300 301 300 300 299 296 294 295 296 297 297 297 297 297 296 296 296 296 296 296 296 296 296 296 296 296 296 296 296 296 295 295 296
298 299 300 300 300 300 300 300 301 301 300 301 301 301 301 301 302 303 304 304 303 302 304 305 305 303 300 301 304 304 301 300 303 306 305 303 302 303 303 301 301 301 300 300 303 305 304 302 300 300 302 300 298 299 301 301 300 301 299 295 295 296 296 296 297 297 297 297 297 297 296 296 296 296 296 296 296 295 295 295 295 296 296 296 296 296 296
299 300 301 301 301 301 301 301 301 300 300 300 301 301 300 301 302 303 303 303 304 305 303 302 302 303 303 302 303 303 302 301 303 305 304 301 301 303 303 302 301 301 301 302 303 303 302 301 301 303 304 301 299 300 301 300 301 302 299 295 296 297 297 296 297 297 297 298 298 297 297 297 297 296 296 297 297 297 296 295 296 296 296 296 296 296 296
301 301 302 302 301 300 301 301 300 299 299 300 301 300 300 302 304 304 303 303 304 304 302 303 305 306 305 304 304 303 302 302 303 304 303 302 302 302 301 301 302 302 303 303 302 301 299 299 301 303 304 301 298 300 301 301 302 302 299 297 297 298 297 297 296 296 296 297 298 297 297 297 296 297 297 297 297 297 296 296 296 296 295 295 295 295 295
301 301 302 301 299 299 299 300 299 299 299 300 301 303 305 307 307 306 305 306 306 303 302 305 309 308 305 304 304 304 304 304 304 302 302 303 303 301 300 302 303 303 302 302 302 301 299 300 302 303 301 299 298 299 301 301 300 299 300 300 298 297 296 296 296 296 297 297 297 298 297 296 296 296 297 296 296 297 297 296 296 296 295 295 294 294 295
301 301 301 299 298 299 298 298 299 301 302 302 305 308 308 307 305 303 304 307 308 304 302 305 308 307 304 303 303 304 305 305 303 302 303 304 302 300 301 303 304 302 301 301 301 300 301 303 304 302 299 298 299 300 301 301 298 297 300 301 299 296 296 297 297 296 297 298 297 297 297 296 296 296 296 296 296 297 297 297 297 296 296 295 294 294 295
300 301 301 301 300 299 298 299 303 306 306 305 305 305 303 303 302 302 303 305 305 304 305 308 308 306 304 304 304 304 305 305 303 302 304 304 301 300 302 304 302 300 300 301 300 300 303 306 306 303 301 300 301 301 301 301 300 300 300 301 299 296 296 297 297 297 297 297 297 297 297 296 296 296 296 296 296 296 296 296 296 296 296 296 295 295 295
300 300 301 302 301 300 299 303 306 307 304 303 302 301 301 302 302 301 302 304 304 304 306 309 308 305 304 305 306 304 303 303 303 302 302 302 301 300 301 302 300 300 301 302 301 302 303 305 305 303 302 301 302 302 301 301 300 301 301 301 299 297 296 296 297 297 297 297 297 297 297 297 297 297 297 297 296 296 296 296 296 296 296 296 296 296 296
300 299 300 301 302 302 303 305 305 302 300 300 301 300 301 303 302 301 302 304 305 304 304 306 307 305 303 303 304 303 302 302 302 301 301 302 301 300 300 301 300 300 302 302 301 302 303 303 303 303 302 302 302 303 302 300 299 298 299 299 298 297 296 296 297 297 297 297 297 297 297 297 297 297 297 297 297 297 297 297 296 296 297 296 296 297 296
298 299 301 303 304 305 306 305 303 301 300 300 301 301 302 303 303 301 301 303 307 308 306 305 306 306 304 302 302 302 301 302 302 302 302 302 301 300 301 301 301 300 301 301 301 302 303 303 302 301 300 300 301 302 301 299 297 297 297 297 297 297 297 297 297 297 297 297 297 297 297 297 297 297 297 297 297 297 297 297 296 296 297 297 297 297 296
298 300 303 304 304 304 303 302 302 303 302 302 302 303 304 305 305 301 299 304 311 311 307 303 303 304 304 303 302 301 301 302 303 303 302 302 302 301 301 301 301 301 301 301 301 302 303 303 303 303 301 301 301 301 299 297 297 297 297 298 298 297 297 297 297 297 297 297 297 297 298 297 297 297 297 297 297 297 297 297 297 296 297 297 297 296 296
299 301 303 304 304 304 302 301 302 303 303 303 304 304 305 305 303 299 299 305 309 308 304 303 303 303 302 302 302 301 301 302 303 302 302 301 301 301 302 302 302 303 303 302 300 301 302 303 303 302 301 300 300 299 298 297 298 298 298 298 297 297 297 297 297 297 298 297 297 297 297 297 297 297 297 297 297 297 296 296 296 296 296 297 296 296 296
Wind_Speed
18 17 19 22 24 24 25 26 25 25 22 15 11 8 2 1 1 3 6 6 5 6 2 3 2 1 2 3 5 6 4 4 5 6 5 4 3 4 4 3 2 1 1 1 3 5 2 0 1 3 2 3 6 6 5 4 5 4 1 1 3 0 3 2 2 3 3 1 3 8 8 8 6 4 4 3 2 1 4 5 3 3 3 1 3 2 2
18 17 20 22 23 24 25 25 25 24 20 12 7 4 1 0 3 2 3 4 3 4 1 1 2 3 4 4 5 4 3 4 6 6 4 3 3 4 4 3 2 2 2 1 2 5 3 2 3 2 1 3 4 4 5 4 4 2 3 2 1 1 0 1 2 3 4 3 1 4 6 6 4 2 4 5 5 3 1 2 3 2 3 4 5 2 2
18 18 21 22 23 24 25 25 26 24 18 8 2 1 0 1 1 2 2 2 3 3 2 3 2 3 3 4 5 5 3 4 6 5 3 3 3 3 4 4 3 3 4 3 4 6 3 1 3 3 2 2 3 2 4 6 5 3 2 3 2 1 1 2 4 3 2 2 3 2 2 4 3 2 5 6 8 7 2 2 4 1 2 3 5 3 2
19 19 21 22 23 25 26 26 27 24 17 8 3 3 0 2 1 2 4 5 4 1 0 3 2 1 1 2 4 4 4 5 5 4 2 4 4 2 3 4 4 4 5 5 6 7 5 2 3 4 4 3 4 6 8 6 6 8 8 7 5 3 1 2 3 4 4 4 5 4 3 5 4 3 7 7 6 6 5 3 3 2 1 4 3 6 8
19 19 21 22 24 25 26 28 28 22 14 6 4 3 1 2 1 0 1 2 3 2 2 3 2 1 2 1 3 4 5 5 4 4 2 4 5 2 3 6 6 5 4 4 4 6 6 5 5 4 4 3 3 8 10 8 6 9 9 6 3 4 3 3 2 1 3 4 5 3 4 6 6 5 6 7 6 8 7 3 1 3 5 3 2 9 11
19 20 21 22 24 26 27 29 27 19 12 6 4 2 1 1 1 1 3 1 0 1 2 1 3 2 1 1 2 4 6 5 4 4 3 4 6 4 4 7 8 7 5 3 3 5 5 5 5 4 5 4 4 6 7 7 7 6 5 4 3 5 1 4 3 5 8 5 1 5 7 6 6 6 6 6 7 9 8 3 2 2 4 4 7 9 8
19 20 22 22 23 26 28 29 26 18 11 9 7 3 1 2 1 1 2 2 3 2 1 2 4 4 2 1 3 4 6 6 4 4 3 4 7 6 4 7 8 9 7 4 4 4 3 4 4 3 5 5 2 3 3 4 6 5 4 3 2 4 1 3 2 4 9 11 8 3 8 10 8 8 6 5 8 10 9 7 7 8 8 7 10 10 7
20 20 21 22 23 25 27 28 27 19 11 9 8 5 2 2 0 2 2 3 1 1 2 2 3 3 3 2 3 4 5 6 4 4 3 4 7 6 6 7 7 6 7 5 4 2 2 1 4 3 5 5 1 1 1 0 3 4 4 3 4 2 2 2 3 3 6 10 10 5 9 14 11 10 10 8 6 7 7 7 8 10 9 7 9 9 5
19 20 21 21 22 24 26 27 28 22 14 10 6 4 5 2 2 0 3 2 3 1 1 3 3 2 3 1 1 3 5 4 1 3 3 2 2 5 5 7 5 5 8 7 3 3 3 4 8 6 4 5 2 0 2 2 2 1 2 2 3 3 1 2 4 4 3 5 7 5 6 12 10 11 12 11 5 4 3 2 4 7 8 8 6 5 3
19 20 21 21 21 23 25 26 27 24 18 12 5 3 7 5 3 2 4 2 3 1 1 3 3 1 2 2 1 1 4 4 2 0 4 1 0 3 4 5 3 4 7 7 6 7 6 8 9 7 6 6 3 2 4 1 4 2 2 3 1 2 3 1 3 3 1 4 6 5 2 6 6 7 9 9 3 3 4 3 4 5 8 8 5 3 2
18 19 20 20 21 22 23 25 27 24 19 14 7 3 8 6 2 2 4 4 4 2 2 4 3 1 3 4 2 1 4 6 3 2 2 4 4 4 4 5 3 2 4 7 7 7 9 10 10 8 6 4 3 2 3 6 7 3 3 3 1 3 5 3 2 3 1 5 6 3 4 4 2 3 6 6 2 4 7 6 5 5 5 5 6 7 7
17 18 19 20 20 21 22 23 25 24 19 13 8 7 11 8 2 1 5 4 3 4 3 4 3 3 4 4 3 3 5 6 6 1 1 3 4 5 4 4 3 1 6 7 7 7 8 6 5 4 1 2 4 9 13 12 8 4 4 4 3 4 4 3 2 3 2 2 4 4 2 1 0 2 6 6 5 7 11 10 7 6 8 10 11 10 10
17 17 19 19 20 20 21 21 23 23 18 13 9 10 13 11 3 2 4 5 3 4 2 3 6 6 7 7 5 5 7 8 7 5 1 2 3 4 4 2 1 5 7 8 9 7 4 3 2 3 4 5 6 10 13 12 11 10 7 4 4 5 3 3 2 2 2 2 3 2 2 2 3 4 6 6 5 6 9 9 7 5 6 10 11 11 10
17 17 18 19 19 20 20 20 21 21 17 13 11 13 17 14 5 2 3 5 3 3 1 2 7 8 8 9 7 6 7 9 8 7 4 1 1 4 4 4 7 8 6 5 6 3 2 2 3 4 5 4 5 5 6 7 10 11 10 7 4 4 4 3 2 1 2 3 2 2 1 2 3 4 4 2 1 2 1 4 3 5 4 6 11 12 10
17 16 17 18 18 19 19 19 20 19 16 13 13 18 23 19 7 2 3 4 3 3 4 2 4 5 6 7 8 6 6 7 6 6 5 2 2 4 6 7 10 9 4 1 2 3 2 3 3 3 3 2 2 1 3 3 5 7 8 8 6 4 3 3 3 2 2 4 3 2 1 1 1 2 4 2 3 5 2 3 2 2 3 6 10 12 11
17 16 16 17 18 18 18 18 19 19 17 14 15 21 26 22 10 4 3 3 5 2 4 3 1 2 3 4 5 5 4 4 4 4 5 5 5 7 8 8 9 9 5 3 2 3 4 3 3 3 1 1 2 1 1 1 3 5 6 8 9 8 4 3 4 3 2 4 3 1 2 2 3 4 5 4 5 6 2 4 1 1 5 7 10 12 11
16 15 15 16 16 17 18 18 18 19 17 14 15 20 26 25 15 7 4 4 5 2 3 3 4 4 3 3 4 4 3 3 3 2 2 4 5 7 8 8 9 8 7 4 3 3 4 3 3 3 1 1 2 3 1 1 2 5 6 6 8 8 5 4 4 3 3 3 2 1 1 1 3 5 5 5 5 2 3 2 3 4 7 7 9 12 11
16 15 14 15 15 16 17 17 17 18 17 14 14 17 23 26 20 11 6 4 5 2 2 3 6 4 2 2 1 2 2 3 3 2 2 3 3 5 6 6 6 7 5 4 4 4 4 3 2 3 1 2 2 3 1 2 2 1 2 3 4 4 3 3 3 3 3 3 3 1 0 2 3 4 6 6 4 0 3 4 4 5 8 6 7 10 9
16 15 14 14 14 15 16 16 16 17 17 15 12 13 19 23 21 16 8 3 4 2 2 3 7 4 1 2 2 2 2 2 1 2 2 3 4 5 6 3 3 5 4 4 4 3 3 3 1 2 3 3 2 3 3 2 1 0 2 3 3 2 3 3 2 2 2 2 3 1 0 2 5 7 6 4 1 2 3 2 0 5 7 6 5 6 6
16 15 13 13 13 14 14 15 15 15 16 15 11 10 14 18 20 17 9 2 4 3 2 1 5 4 2 3 4 3 3 3 3 3 2 2 4 4 4 3 3 4 4 4 4 3 3 3 3 2 3 2 2 3 3 3 3 2 2 2 2 1 2 2 1 1 2 3 3 2 1 3 8 8 4 3 1 3 2 2 4 5 6 7 6 4 6
15 14 13 12 12 12 13 13 14 14 14 14 12 9 11 15 17 17 10 3 5 3 2 2 5 6 5 5 6 7 6 3 2 1 0 2 3 3 3 2 3 2 3 2 2 2 2 1 2 2 2 2 2 2 2 2 4 4 2 4 2 2 1 1 1 1 1 2 2 1 1 5 8 4 2 2 2 1 4 5 5 5 5 6 7 6 7
14 14 13 11 10 11 11 11 12 12 13 14 14 12 13 15 16 14 10 3 4 3 1 2 5 9 11 9 9 10 9 7 5 2 1 1 3 3 4 1 3 1 0 1 3 2 2 1 1 2 2 2 3 3 2 3 2 4 4 4 3 2 3 5 2 2 3 3 2 1 1 3 5 5 4 4 4 5 7 8 7 5 5 5 7 8 8
14 14 13 10 10 10 9 9 10 10 11 12 14 14 15 17 17 13 8 5 4 4 4 4 4 6 9 10 11 10 9 9 11 10 7 4 2 2 2 1 2 2 0 2 2 1 0 1 2 3 3 2 3 4 4 4 2 2 4 4 2 1 4 5 4 4 5 5 3 2 2 4 6 6 5 6 6 6 7 9 8 6 5 6 7 8 8
13 13 12 10 9 9 8 8 8 8 9 10 12 13 13 15 17 13 8 6 4 3 5 7 4 1 2 7 11 11 9 9 10 11 12 9 4 2 3 2 1 2 4 3 1 2 2 1 1 3 3 2 2 3 4 4 2 1 3 3 2 1 3 4 4 3 3 4 2 2 3 4 5 6 6 7 8 7 7 7 7 6 7 8 8 8 8
13 12 11 10 9 8 8 7 6 6 7 8 10 11 12 14 15 11 6 4 3 3 2 3 3 1 3 7 10 11 11 11 9 9 11 10 6 4 1 3 1 1 4 4 2 4 4 2 2 3 3 2 2 2 3 2 1 2 4 2 2 2 3 4 3 3 3 3 3 3 4 4 4 5 5 5 7 7 7 6 7 7 8 8 8 8 7
13 11 10 10 8 7 7 6 5 6 5 6 8 11 11 12 13 9 5 3 2 3 4 0 4 2 5 9 8 9 10 10 10 10 10 11 9 7 5 4 5 4 2 2 4 5 4 3 3 4 3 2 2 2 2 2 1 3 4 2 2 2 3 3 3 4 5 4 4 5 5 5 5 4 4 4 5 7 7 7 7 8 8 8 8 8 8
12 11 10 9 8 7 6 5 5 5 5 4 6 8 10 12 12 10 7 5 3 2 2 0 4 4 4 6 8 11 11 8 9 12 13 13 13 15 13 8 5 5 4 4 4 4 4 4 3 2 1 1 2 2 2 2 3 4 3 4 3 3 3 2 4 5 3 3 4 5 4 3 1 2 4 4 5 7 7 6 6 7 7 7 7 8 9
11 9 9 9 8 7 6 4 4 5 5 4 3 6 9 12 13 10 7 6 3 3 3 2 3 4 4 3 6 10 10 8 9 12 14 14 13 15 15 9 4 4 4 4 3 3 4 3 2 1 0 1 2 3 2 2 4 4 3 4 3 3 3 3 4 4 4 5 6 5 5 4 5 5 5 4 4 6 7 6 6 6 6 7 8 7 7
10 8 8 8 8 7 5 4 3 4 5 3 4 6 5 6 10 11 7 5 4 4 3 1 2 2 1 1 2 4 5 5 6 10 12 12 12 14 13 9 5 3 3 3 4 3 2 2 1 0 0 2 3 2 3 3 4 3 3 4 4 2 2 4 6 4 1 2 5 5 5 5 5 5 5 5 4 6 6 5 5 5 6 9 9 8 8
10 9 8 8 7 6 5 2 2 4 5 3 5 5 3 3 6 10 9 5 4 3 3 3 1 1 1 1 2 4 2 3 6 11 13 11 9 8 9 7 5 4 4 3 3 3 1 1 2 2 2 1 4 3 2 3 3 2 4 3 4 5 4 3 4 4 2 2 3 5 6 6 5 5 5 5 7 8 6 5 7 7 7 9 9 9 13
10 9 8 7 7 5 4 1 3 3 5 3 3 3 2 0 3 8 9 5 3 2 3 3 1 2 3 2 2 3 3 1 3 8 9 8 6 5 6 6 5 4 4 2 2 2 2 1 2 3 4 3 5 4 2 4 4 2 3 3 5 5 5 5 5 4 4 5 6 7 7 6 6 6 4 4 8 11 8 7 11 12 10 11 13 14 17
10 9 8 7 6 4 2 1 4 3 3 3 3 3 2 0 4 8 7 5 2 1 3 3 1 0 1 3 3 4 4 2 2 4 5 5 5 5 6 5 3 3 3 3 2 2 1 1 1 2 3 3 4 4 2 5 5 3 2 3 6 6 6 6 5 6 6 6 7 7 6 4 4 5 5 4 7 12 11 10 13 15 14 14 16 16 17
10 9 7 6 5 3 1 3 3 2 2 3 3 2 1 3 6 6 5 4 2 2 3 3 2 0 1 2 3 6 6 3 3 4 4 3 2 3 4 3 3 3 4 3 2 1 1 2 2 2 4 3 4 4 3 3 4 5 4 5 6 5 6 6 6 6 5 5 6 5 4 3 3 6 9 9 9 12 13 12 12 12 13 13 11 11 12
8 8 6 4 3 2 3 4 3 2 2 2 1 1 3 5 5 4 4 3 1 1 2 3 3 0 2 1 2 4 4 3 2 2 1 2 1 2 2 3 3 3 3 2 2 2 2 2 2 2 3 3 4 4 2 1 1 2 3 4 5 6 6 6 6 6 6 5 6 5 6 7 6 7 7 7 7 9 12 12 11 9 8 7 7 8 11
7 6 4 2 3 5 5 4 3 2 1 1 2 2 4 5 4 3 3 3 2 2 1 2 3 1 1 2 1 4 3 3 1 1 1 1 3 2 2 2 3 2 1 1 2 3 2 1 2 2 2 3 4 3 1 2 1 2 4 4 3 5 6 4 3 4 4 5 6 6 6 7 7 6 5 5 5 6 7 8 8 7 6 5 6 9 12
5 3 3 5 6 5 4 3 2 1 0 1 2 3 3 3 2 2 2 3 3 2 1 1 2 1 2 3 1 4 4 3 1 2 2 2 3 3 3 4 3 1 1 2 3 2 2 1 2 3 3 3 3 0 3 4 5 5 4 2 1 2 4 5 6 5 4 4 6 5 5 6 5 5 5 5 6 6 6 5 5 6 7 6 5 7 10
2 4 6 6 4 3 2 1 0 1 0 1 2 2 2 3 3 3 3 3 3 1 2 3 1 1 2 3 1 3 3 2 1 3 3 2 2 2 2 3 2 2 2 4 2 2 2 1 3 4 3 2 2 2 3 4 6 5 5 3 1 2 5 5 6 6 6 5 5 4 3 4 3 2 5 6 5 6 7 6 7 9 9 7 6 6 9
4 5 5 4 3 2 1 1 1 1 0 1 1 2 2 2 2 2 2 2 1 2 2 3 2 2 2 3 1 3 2 1 2 2 1 0 1 2 2 2 1 1 2 2 2 1 2 3 3 4 2 2 1 1 1 4 5 3 4 4 3 4 5 4 4 6 6 4 2 2 3 5 4 2 5 6 5 5 7 7 9 12 13 12 11 12 12
5 3 2 3 2 0 0 0 1 1 1 2 2 2 1 2 3 1 2 1 1 2 1 3 1 1 4 4 1 3 2 3 3 3 2 1 1 1 1 1 1 2 3 1 3 2 4 3 2 3 2 4 4 3 3 4 5 4 4 4 4 5 5 3 2 4 5 6 5 5 5 5 5 4 5 5 4 5 7 9 11 14 15 15 16 16 13
3 2 1 1 0 1 2 2 2 3 2 2 2 2 1 1 1 1 0 1 1 1 0 2 1 0 3 5 2 2 3 2 2 2 1 0 0 1 1 1 1 2 3 1 3 1 3 2 2 3 1 2 2 1 3 5 6 5 5 6 6 7 7 6 6 2 4 6 6 7 8 9 9 7 7 7 6 5 6 8 11 15 17 17 16 15 12
3 2 1 1 2 3 2 1 2 3 2 2 2 2 1 1 1 0 2 2 1 2 1 2 2 2 2 3 3 1 2 1 2 3 2 1 1 2 2 0 0 2 2 2 2 1 3 2 3 2 2 4 4 1 3 6 5 5 7 9 10 10 9 8 9 9 7 5 4 2 5 10 12 11 11 12 10 9 10 11 11 13 16 16 14 12 10
2 1 1 3 3 2 2 2 2 2 2 2 2 1 0 1 1 1 1 1 1 1 1 1 2 2 1 2 3 2 0 1 1 3 2 1 1 2 2 1 1 3 1 3 1 3 3 2 2 1 4 5 3 1 4 5 4 4 6 8 10 12 10 6 5 7 10 11 9 6 2 4 9 11 11 10 9 10 13 12 10 10 14 16 14 12 11
1 1 1 2 2 1 2 2 1 1 2 2 1 1 1 1 1 1 1 1 0 1 1 0 1 1 1 2 2 1 1 1 2 2 2 0 1 1 2 2 1 1 1 1 2 4 2 1 2 3 5 4 1 2 3 3 3 3 5 7 9 11 11 7 2 2 5 10 9 3 1 2 5 7 7 7 7 8 9 9 8 9 13 16 15 13 13
2 0 1 2 1 1 1 1 1 1 1 0 1 2 1 1 1 1 1 1 1 1 1 1 2 3 1 1 1 1 1 1 2 2 1 0 1 2 2 0 1 1 1 2 3 2 1 1 2 4 4 2 2 2 3 3 3 4 4 6 8 10 12 10 6 3 5 7 7 6 5 4 2 5 6 5 7 10 11 10 9 9 12 13 12 10 10
2 1 3 3 2 1 1 1 1 0 1 1 2 3 3 3 2 3 3 2 2 2 2 2 4 4 1 0 1 1 0 1 1 1 0 1 2 2 0 1 1 1 2 2 2 1 1 1 3 3 2 1 1 0 2 3 3 3 2 4 7 8 9 9 7 6 6 5 4 4 6 9 7 1 3 4 6 10 12 11 10 10 10 10 10 8 7
1 1 3 3 1 1 1 1 1 1 1 2 3 3 4 4 4 3 2 1 3 5 3 3 5 4 1 1 1 1 1 2 1 0 1 2 2 0 1 1 2 3 2 2 1 0 2 4 4 4 3 3 3 2 2 2 2 4 4 3 5 4 4 5 4 4 5 5 5 4 1 5 9 9 5 2 2 8 12 12 11 10 9 10 10 9 8
0 0 2 2 0 1 1 1 2 3 2 3 4 4 4 4 3 2 2 2 4 4 3 2 3 3 1 1 1 1 1 2 1 1 1 2 1 1 1 3 2 0 1 1 1 3 4 4 4 4 5 4 2 0 1 1 2 3 3 2 3 3 1 1 1 0 2 5 6 6 5 2 3 6 8 9 7 2 5 9 10 9 9 9 10 9 7
0 1 2 1 1 1 1 2 2 1 0 1 3 3 4 4 5 3 2 2 4 4 4 3 3 2 2 2 2 1 1 2 1 1 0 2 1 1 2 2 1 1 1 3 4 4 4 4 4 5 5 4 3 3 1 1 1 1 2 4 4 4 4 5 5 4 4 4 5 6 7 6 5 4 3 7 9 9 8 4 5 9 9 9 8 6 4
1 1 1 1 1 1 3 2 1 2 2 2 4 4 5 6 5 2 0 2 4 4 3 3 3 2 1 1 2 2 1 1 1 0 1 2 2 1 1 1 1 2 1 2 3 3 4 5 4 4 3 3 3 2 2 2 2 2 3 4 4 6 7 7 7 7 5 4 5 8 9 9 9 9 6 5 6 8 10 12 8 9 11 9 8 7 5
0 1 0 1 1 1 2 1 4 3 1 3 4 4 4 5 4 1 1 2 3 3 3 3 3 2 0 1 2 2 1 1 1 2 1 1 1 2 1 1 1 2 2 1 2 3 4 4 3 3 2 1 2 2 2 3 3 3 2 2 3 5 6 5 4 4 3 3 4 7 9 10 10 11 12 12 11 10 9 10 9 7 9 10 10 9 8
1 1 1 1 2 2 1 1 3 4 4 5 4 2 3 5 3 0 1 2 4 4 3 2 1 2 2 2 1 0 1 1 2 2 0 1 1 2 2 1 2 3 3 3 3 4 4 3 4 3 2 2 3 4 3 2 1 1 1 2 4 5 4 4 4 4 4 4 3 4 9 12 12 13 14 13 12 10 9 8 5 3 4 6 7 6 7
1 0 2 3 2 2 2 1 2 3 3 4 3 2 3 3 2 1 2 5 5 3 1 1 1 2 2 1 1 0 1 1 2 1 0 1 0 2 3 4 3 4 4 4 3 3 4 4 4 5 5 4 5 5 4 1 2 2 2 5 5 5 6 6 6 6 6 6 5 5 8 13 14 13 12 10 9 7 8 10 8 5 4 4 3 3 6
Wind_Direction
348 349 354 358 0 1 0 0 1 1 359 356 358 1 25 88 324 212 162 156 133 91 47 318 2 296 291 315 312 321 319 297 304 314 327 324 288 288 301 314 345 340 311 346 356 345 329 160 128 134 146 214 215 205 192 141 109 114 142 287 286 42 71 41 296 295 307 285 101 83 73 72 64 17 351 18 1 202 156 170 178 144 143 125 88 109 241
350 351 355 360 2 1 1 2 3 3 359 349 347 1 91 178 288 252 150 165 134 86 94 287 329 295 315 339 313 304 293 282 298 307 314 311 293 294 301 310 323 303 301 333 11 356 357 41 39 56 126 242 238 183 153 116 81 103 175 185 254 281 53 51 47 18 348 318 319 46 53 68 75 330 339 11 9 4 114 120 86 114 194 150 126 159 236
352 354 358 2 2 1 3 3 4 3 357 339 300 231 74 51 293 293 20 59 93 100 156 170 201 282 326 332 311 313 298 286 303 304 273 262 278 278 283 299 331 352 352 14 29 18 14 31 11 8 7 322 334 55 94 85 77 92 126 114 105 137 172 103 99 129 176 215 224 205 108 92 87 346 359 18 19 19 25 106 82 82 265 85 104 156 160
351 354 0 3 3 4 4 4 7 5 349 322 221 193 134 78 70 316 343 18 50 62 148 122 134 246 5 348 316 314 306 303 316 331 315 307 316 291 285 327 5 10 14 38 33 13 5 30 46 20 1 352 6 38 48 53 86 95 75 65 77 99 100 81 121 160 181 196 210 209 139 102 107 58 28 26 19 28 55 86 86 141 114 42 63 141 128
352 356 3 4 4 7 7 8 12 8 349 328 177 168 44 86 98 83 291 347 16 2 347 56 95 179 143 82 317 302 308 312 329 355 339 301 318 341 10 16 28 6 5 54 33 353 358 28 41 12 347 337 11 39 43 32 55 85 73 47 71 95 40 0 22 323 281 224 195 153 107 110 126 116 66 45 37 44 56 49 329 151 117 74 150 137 124
355 0 4 5 7 9 10 13 17 17 15 35 122 141 28 99 144 160 147 146 354 13 359 72 94 62 124 125 320 312 323 336 350 342 286 294 342 16 20 14 27 19 14 79 45 354 8 19 8 359 353 340 358 33 44 27 21 55 70 42 72 102 35 332 7 4 341 332 50 94 101 101 98 106 98 82 75 73 74 42 331 130 123 140 148 124 109
357 2 6 7 10 13 14 17 20 27 42 52 64 64 1 70 41 304 88 101 190 196 1 88 88 39 22 20 345 329 337 351 359 332 306 342 359 25 34 1 10 23 29 77 69 22 34 6 334 348 356 341 6 31 19 12 4 15 62 50 55 104 72 333 29 40 10 5 357 27 101 95 72 61 54 60 85 93 90 78 71 74 75 99 117 104 79
358 3 8 10 14 16 17 20 22 31 55 64 59 50 20 71 79 301 29 31 265 207 16 57 88 29 7 25 351 334 343 357 357 330 350 20 349 0 37 9 354 17 28 59 87 67 70 325 278 295 346 333 1 64 274 124 9 5 55 32 347 57 78 340 44 60 21 13 352 348 98 96 74 45 22 13 54 87 89 98 97 80 67 78 94 89 66
358 4 10 13 18 20 20 22 23 29 50 66 66 36 9 348 241 186 94 36 328 335 42 65 89 21 352 37 352 335 338 357 39 302 317 67 357 331 19 17 354 7 16 22 22 326 325 273 257 254 279 278 250 3 274 161 117 23 90 67 355 35 46 353 55 62 356 4 342 319 95 89 64 34 8 348 0 92 100 121 122 118 119 114 97 90 90
359 6 13 16 20 23 23 25 25 30 44 59 67 4 359 355 326 24 92 90 351 1 82 49 67 31 291 270 273 282 292 312 82 301 310 13 51 308 9 36 17 2 356 338 309 300 292 275 269 260 250 255 260 265 266 189 109 130 99 83 94 117 113 70 69 93 315 330 315 295 49 66 44 16 348 321 296 119 89 56 61 101 130 137 141 138 100
360 7 16 19 20 24 26 28 28 30 41 53 58 5 356 360 330 5 73 76 355 341 70 41 32 269 268 278 296 319 305 322 5 93 312 321 321 332 17 54 55 343 279 266 273 284 275 266 263 252 244 274 336 11 53 64 72 94 110 93 87 114 121 131 102 118 195 305 321 349 49 58 52 357 337 316 300 92 85 68 43 53 92 115 121 112 90
1 8 16 20 22 24 27 30 30 32 39 48 50 24 5 1 341 52 86 91 357 350 56 35 348 309 308 310 322 338 339 333 328 313 210 283 310 332 0 47 60 267 257 269 293 305 294 278 264 260 249 92 66 58 59 54 45 59 104 120 115 99 107 118 97 111 154 325 10 48 74 117 194 356 357 5 33 69 81 70 45 64 97 101 100 103 106
2 9 16 19 22 25 26 29 31 33 39 44 41 29 16 13 32 92 100 103 34 359 43 4 350 5 10 3 358 351 354 351 336 333 332 241 301 329 335 8 321 264 272 300 314 322 334 340 1 9 28 72 73 53 48 44 37 39 47 70 116 128 118 109 105 111 122 79 60 98 170 273 326 357 6 19 24 36 61 59 30 29 86 106 107 109 116
0 7 15 18 22 25 25 27 30 33 39 44 40 33 25 22 39 105 101 103 71 348 37 25 355 6 21 13 6 6 2 359 353 348 342 269 299 324 319 324 313 294 287 307 323 353 43 30 29 19 4 29 48 26 19 33 37 38 40 42 65 116 118 102 98 98 110 109 82 81 100 324 344 357 356 20 9 312 40 86 36 6 43 110 121 123 127
360 5 13 18 22 25 25 26 29 31 37 44 46 39 29 24 32 117 113 116 108 19 22 28 332 346 17 14 12 21 6 352 354 345 328 325 353 330 320 325 322 314 310 346 359 26 63 68 66 48 4 24 75 1 330 7 20 24 44 53 50 63 101 127 122 79 85 105 95 85 137 208 263 284 286 270 230 239 202 108 46 18 96 131 133 132 137
359 3 12 18 21 24 26 26 27 29 32 40 47 42 33 27 37 98 107 101 106 57 338 314 328 29 39 10 5 28 21 343 343 344 337 347 348 331 323 324 326 335 2 40 43 42 58 77 100 108 96 146 144 153 332 3 344 341 11 44 46 42 47 88 96 69 59 98 109 128 175 204 241 267 278 271 251 242 148 84 347 177 146 150 143 139 147
359 3 10 18 21 24 26 26 26 27 29 37 48 44 34 29 36 73 93 75 90 105 297 336 53 54 43 16 352 8 18 341 343 8 338 321 319 327 332 330 333 354 25 44 33 38 58 72 83 83 63 240 127 120 130 88 39 335 340 13 30 31 25 42 69 72 71 88 99 106 126 232 263 278 287 286 278 256 119 129 245 169 150 163 155 147 155
359 2 10 18 21 23 26 27 27 28 29 39 54 49 36 30 35 56 81 86 89 80 318 45 77 63 38 52 348 335 12 352 354 20 323 295 301 326 330 331 340 353 18 45 41 40 50 44 76 98 71 321 78 101 90 83 87 336 343 25 25 20 20 44 73 70 63 86 102 106 204 274 298 298 291 296 310 74 157 213 227 150 143 155 155 155 162
358 1 9 17 22 23 26 28 28 29 30 36 48 52 39 31 33 44 54 81 99 80 322 70 87 80 44 68 38 352 5 13 48 69 12 326 313 315 312 321 358 355 4 41 45 50 51 14 341 107 75 4 24 79 64 53 67 67 60 49 26 16 11 22 52 38 31 87 92 72 208 323 332 314 300 318 30 172 204 238 163 124 135 136 137 156 156
358 1 8 17 22 24 26 29 30 32 33 33 38 50 44 33 30 33 37 89 113 71 329 49 98 115 125 87 75 52 27 24 45 75 82 275 291 345 10 350 346 356 7 32 34 27 42 12 331 34 62 355 3 78 76 49 43 62 89 70 37 60 54 27 24 18 38 67 56 58 183 319 330 323 324 10 70 176 172 75 62 84 108 111 103 108 118
357 0 7 16 21 24 28 30 31 35 36 34 37 44 40 33 28 24 20 66 114 90 356 51 94 99 98 102 110 109 105 88 40 31 175 273 303 53 90 245 283 350 12 31 40 1 1 3 340 18 37 335 0 66 95 69 33 19 84 103 53 13 88 126 296 341 67 90 65 69 244 309 333 358 70 36 356 131 114 93 75 66 78 93 90 84 97
356 358 5 16 20 23 30 31 31 37 38 37 42 45 35 28 27 22 18 45 107 104 102 118 98 84 78 81 85 89 99 103 83 70 124 341 348 62 114 209 296 300 246 76 64 5 341 19 42 57 47 8 18 43 67 91 54 345 9 67 35 359 107 116 85 39 69 101 122 152 233 328 6 42 69 57 48 68 86 91 86 72 69 84 92 90 87
354 356 1 13 19 22 29 32 32 36 37 38 42 42 34 26 23 26 43 69 67 41 33 49 77 73 61 62 68 71 78 80 66 55 65 73 5 2 61 36 318 306 309 109 122 169 222 87 90 90 73 32 42 53 48 64 75 4 23 56 63 100 102 95 92 92 80 74 84 108 72 47 46 48 51 56 57 61 74 83 84 80 77 79 87 92 89
351 354 358 8 17 21 24 30 36 38 37 42 41 38 38 33 23 23 43 63 61 42 18 23 39 64 32 53 65 64 58 62 60 47 45 56 72 34 344 308 281 356 336 310 199 154 117 81 63 73 72 44 51 78 73 62 61 64 61 46 348 340 54 69 90 117 93 79 102 122 95 84 77 70 64 62 61 60 65 76 82 82 82 84 87 89 88
347 350 357 5 11 17 19 24 35 39 37 42 42 41 45 39 27 27 45 55 69 107 80 5 338 250 110 81 67 55 50 53 57 47 36 40 68 102 1 314 337 1 304 308 30 73 66 49 54 73 81 64 53 69 79 78 91 94 80 57 327 352 58 76 82 66 66 101 140 130 94 76 68 75 80 78 77 74 67 71 81 82 80 84 90 94 96
344 344 353 4 8 10 13 16 28 37 38 36 36 42 48 39 26 28 52 71 78 88 89 349 295 344 86 91 70 58 64 59 46 42 38 32 40 58 56 22 21 26 0 13 54 76 82 70 72 82 76 57 67 75 71 64 77 74 63 13 304 33 62 83 105 88 77 93 118 109 76 42 30 64 93 96 97 95 85 76 78 80 81 81 80 84 97
341 341 349 359 4 5 5 7 17 31 43 43 39 52 62 54 40 33 40 52 71 75 59 285 282 328 49 90 84 76 77 61 33 28 27 27 37 46 49 46 33 27 34 37 37 58 74 57 50 75 84 28 52 71 78 78 78 72 39 336 342 69 84 92 109 116 137 176 166 145 114 92 127 146 129 113 107 108 105 98 92 91 93 92 85 82 89
335 341 346 351 359 3 360 358 15 36 45 49 67 88 81 60 48 41 33 37 73 136 156 207 267 311 359 60 98 93 81 61 36 23 15 18 38 49 48 49 51 43 47 55 47 49 58 50 33 32 76 56 46 32 22 49 64 58 14 334 355 109 147 151 135 149 196 192 173 152 122 135 182 181 158 148 135 119 115 117 116 113 111 107 102 97 89
331 341 345 346 355 0 352 349 26 49 43 54 115 120 103 57 40 39 32 27 52 100 124 66 333 309 321 80 93 85 87 79 45 26 21 28 43 50 48 46 54 62 69 82 81 73 65 65 73 316 322 111 106 52 18 53 69 43 340 332 358 47 113 136 138 141 148 147 150 139 118 130 167 168 154 159 148 123 116 117 114 113 117 115 112 112 112
331 337 341 343 351 356 349 353 76 62 40 73 132 109 63 21 27 31 32 32 40 75 106 94 59 302 283 283 2 15 45 96 49 34 31 28 28 41 49 46 43 55 63 66 76 93 95 23 354 323 319 83 108 98 59 83 85 2 324 354 36 44 41 62 105 118 108 109 120 112 106 113 125 126 123 128 122 113 108 116 118 114 114 116 113 111 115
328 331 336 342 349 350 345 15 116 81 37 56 122 94 61 217 6 20 26 28 18 64 96 97 130 317 338 320 317 1 19 70 50 40 36 19 2 19 46 47 39 45 57 52 26 54 85 52 5 345 337 21 80 103 116 100 88 358 323 29 67 70 57 39 47 71 86 89 85 81 88 100 105 97 88 108 121 117 111 123 130 126 120 119 119 119 121
325 329 336 343 346 346 348 122 131 106 43 48 86 104 132 178 358 11 23 26 16 113 95 72 49 2 344 297 303 354 23 47 51 41 30 13 11 22 32 42 52 50 64 81 43 8 40 94 51 5 345 17 72 90 77 88 113 183 202 101 89 90 87 75 60 52 54 69 82 83 86 100 117 128 145 160 140 126 124 133 137 132 123 117 118 122 125
324 331 339 343 345 354 86 140 142 124 65 64 81 95 46 5 0 9 21 23 27 109 106 94 106 176 259 257 317 354 11 28 31 29 17 352 20 40 15 12 37 31 29 54 70 341 4 70 60 9 342 13 77 84 64 81 142 188 176 118 102 98 97 98 96 86 76 80 91 103 125 140 139 148 156 160 150 137 135 140 140 129 117 111 111 117 123
328 336 344 349 7 66 119 138 137 115 70 43 29 358 355 352 357 17 27 21 48 68 48 76 108 35 329 4 339 342 10 50 55 38 13 309 346 71 29 353 24 33 12 25 68 41 16 37 64 28 351 1 57 72 65 68 165 180 140 105 95 93 88 84 95 109 120 115 108 124 146 142 133 138 144 147 152 145 140 144 145 129 109 111 121 127 126
335 341 357 32 94 113 124 132 130 122 71 3 332 330 345 344 354 33 31 14 52 74 6 34 103 128 40 53 333 310 356 53 68 79 103 313 344 48 83 36 28 22 321 26 61 46 21 80 102 51 353 4 42 56 114 143 104 81 89 89 96 103 98 95 116 137 149 137 124 128 131 123 131 150 148 142 154 146 134 144 153 136 121 138 154 144 138
334 1 68 103 119 119 118 124 134 145 76 1 334 339 3 17 32 50 40 34 61 99 171 35 66 131 138 124 231 300 353 29 350 349 40 22 355 17 69 72 47 321 318 49 45 12 348 91 90 41 6 40 59 15 201 147 112 94 91 90 215 153 134 150 159 146 126 109 110 121 125 120 134 161 153 146 157 150 131 128 133 127 132 156 166 150 146
358 93 103 113 117 96 68 60 249 264 316 12 351 7 61 90 72 36 31 44 47 60 114 93 63 227 157 139 229 313 1 31 11 12 22 16 344 350 38 64 47 315 13 41 22 314 316 30 77 66 36 61 111 226 221 131 108 110 112 99 74 126 134 147 145 122 100 87 83 85 92 85 70 125 151 156 159 146 139 139 137 137 144 154 160 160 155
116 114 104 92 83 61 13 301 276 242 145 57 27 29 49 71 61 22 6 34 18 338 59 84 38 332 68 88 330 314 356 41 29 35 35 349 10 10 23 53 82 60 47 11 285 288 17 22 65 82 55 312 351 71 110 101 100 108 108 93 89 120 137 146 135 119 113 108 103 96 82 66 46 77 150 159 160 151 151 151 143 144 151 156 161 167 166
114 103 67 70 90 117 256 67 65 79 80 42 38 47 25 30 50 18 318 355 26 328 15 75 63 11 89 94 348 322 32 68 50 38 25 356 34 41 32 33 37 66 65 337 291 17 53 31 46 72 32 338 349 3 27 61 63 48 45 56 68 87 94 82 95 143 164 174 179 180 160 134 127 134 137 139 153 166 163 153 143 145 154 160 163 166 170
86 36 26 71 57 4 47 76 50 36 40 26 24 48 46 23 60 150 268 27 35 318 330 110 138 266 109 117 114 350 19 73 109 115 108 304 208 120 90 69 55 71 67 328 300 48 86 76 54 65 41 314 315 341 52 68 62 43 37 43 51 65 69 51 39 67 181 188 179 179 174 155 142 145 154 155 158 171 175 170 162 158 160 166 170 171 174
21 15 343 290 319 357 27 31 4 18 49 47 20 35 61 327 296 167 81 62 26 281 274 88 69 15 27 93 106 56 347 328 141 124 108 349 340 63 65 343 316 75 69 278 279 67 84 69 56 81 224 253 266 276 73 71 59 42 40 39 37 43 52 51 53 68 90 97 77 100 157 145 133 139 159 168 171 181 188 187 180 173 172 177 183 183 185
14 7 322 308 320 357 30 16 0 18 53 54 21 10 9 254 305 12 74 114 175 250 342 67 117 138 102 85 103 121 283 319 46 83 81 344 308 88 84 1 32 69 109 250 275 55 61 61 68 205 247 261 273 86 84 79 75 62 50 43 39 39 41 44 58 80 95 97 78 45 31 135 128 134 149 157 165 186 195 193 193 194 189 188 190 192 195
179 264 331 332 338 28 40 8 1 38 49 51 59 44 345 330 352 29 311 284 307 71 34 328 130 95 44 55 82 86 6 20 55 80 88 24 311 65 60 34 42 121 226 258 51 59 60 97 162 220 250 273 336 78 93 88 79 59 46 46 43 35 31 35 45 80 103 112 111 97 292 214 151 138 141 143 145 163 179 184 193 203 197 191 193 201 204
161 264 17 12 358 42 46 344 326 78 73 2 119 117 129 269 269 143 184 262 348 81 179 175 105 87 66 65 79 44 3 22 55 62 61 351 28 62 67 42 241 224 275 28 56 76 101 164 216 234 246 279 21 79 106 93 68 50 37 35 32 25 25 34 52 67 72 79 74 47 4 323 210 168 172 178 167 163 166 168 172 184 192 194 200 208 210
121 56 52 40 349 344 75 7 323 41 146 211 188 154 169 201 197 170 186 200 140 102 83 69 90 103 119 316 60 74 15 22 44 49 110 54 40 49 145 224 253 49 53 40 34 58 98 212 267 274 268 281 352 114 145 130 103 93 66 15 8 20 38 53 66 80 86 83 69 36 355 335 329 307 182 196 190 182 183 183 182 187 197 207 215 217 218
124 130 97 90 322 284 124 106 302 269 192 204 198 172 166 174 170 160 159 108 100 108 106 85 89 95 75 352 21 78 71 70 65 24 109 86 72 338 215 100 54 45 45 38 26 24 210 227 247 256 233 221 238 246 216 183 115 93 80 21 350 6 62 85 89 98 121 147 168 170 188 335 349 5 17 18 196 197 200 203 203 205 211 221 229 234 238
229 228 94 96 266 293 91 170 211 210 191 185 177 159 142 135 122 85 56 82 118 124 111 71 75 85 65 51 65 23 12 66 75 326 30 84 104 287 20 54 63 117 117 122 216 233 234 235 239 236 225 213 196 4 325 344 47 60 51 5 335 330 347 144 166 218 176 175 168 150 142 146 345 353 3 12 15 348 217 211 210 212 217 229 241 249 250
188 103 92 117 175 193 207 228 245 282 335 139 143 136 115 98 89 69 40 67 102 100 82 63 62 42 1 31 77 78 346 43 60 315 354 88 90 17 27 35 334 261 160 172 202 217 221 220 220 224 221 194 138 105 51 6 60 37 344 321 310 300 282 256 247 260 267 230 196 177 169 179 204 239 325 360 359 354 349 323 239 214 208 220 234 239 234
200 79 96 148 164 224 230 208 127 29 349 32 93 99 91 93 102 112 29 61 84 91 103 115 110 97 332 339 66 66 16 43 83 18 14 54 77 114 121 110 288 286 267 203 191 199 212 219 218 216 214 192 160 153 184 214 237 297 314 307 309 324 324 301 273 264 269 271 249 230 219 216 216 215 219 251 284 309 336 339 308 245 222 222 227 226 226
168 65 79 124 84 327 294 100 106 105 60 66 89 103 103 100 100 60 330 81 88 65 47 59 78 83 34 18 55 43 328 264 120 86 58 76 156 157 135 135 201 221 216 169 157 185 208 211 191 177 196 230 228 228 238 248 267 298 314 310 323 339 345 334 303 276 268 281 277 253 238 233 228 220 218 225 238 256 294 323 320 278 245 241 243 246 253
33 28 290 214 169 189 253 97 124 143 140 123 128 149 122 109 112 309 353 82 80 58 48 63 80 59 50 48 57 106 257 343 57 74 91 249 184 121 123 168 206 192 185 185 186 192 198 186 164 160 183 237 245 252 266 271 241 193 221 283 305 315 315 311 312 312 309 313 308 260 239 237 236 230 226 225 227 238 262 281 294 293 267 258 255 263 278
58 18 298 293 256 197 169 124 119 132 125 126 142 141 113 121 160 195 63 74 78 79 106 137 93 75 83 140 223 148 91 48 35 49 57 280 309 128 152 184 198 183 177 187 189 179 180 184 181 178 188 217 248 272 290 274 187 199 271 291 295 301 308 312 318 325 325 319 311 283 258 247 239 232 228 221 211 219 250 263 261 253 252 251 251 281 305